Location: Unspecified
(0.0000°N, 0.0000°E)
Time: 09:07:58
(UTC+00:00)

Vanguard 2 - Pass Details

Date: 23 October 2021
Orbit: 554 x 2936 km, 32.9° (Epoch: 06 December)

Event Time Altitude Azimuth Distance (km) Brightness Sun altitude
Rises 16:27:46 0° 212° (SSW) 5,064 12.4 18.7°
Reaches altitude 10° 16:34:50 10° 183° (S) 4,699 11.8 17.0°
Maximum altitude 16:39:05 12° 164° (SSE) 4,863 11.6 16.0°
Drops below altitude 10° 16:43:48 10° 146° (SE) 5,306 11.6 14.8°
Sets 16:53:36 0° 118° (ESE) 6,707 11.9 12.4°
